Preview of NWS' New Version of Forecast
This preview is not operational and should not be used for support decisions.

Regional Weather Roundup (RWR)

Issued by National Weather Service (NWS)

                            
000
ASUS42 KTBW 151818
RWRFL 
FLORIDA REGIONAL WEATHER ROUNDUP
NATIONAL WEATHER SERVICE TAMPA BAY RUSKIN FL
200 PM EDT SUN SEP 15 2019

NOTE: "FAIR" INDICATES FEW OR NO CLOUDS BELOW 12,000 FEET WITH NO
SIGNIFICANT WEATHER AND/OR OBSTRUCTIONS TO VISIBILITY.

FLZ001>010-012>015-112-114-115-151900-
PANHANDLE FLORIDA
  
CITY           SKY/WX    TMP DP  RH WIND       PRES   REMARKS
PENSACOLA      FAIR      89  72  56 E10       30.01F HX  96           
PENSACOLA NAS  PTSUNNY   87  72  60 E10       30.01F                  
MILTON NAS     FAIR      89  51  26 NE8G17    30.03F                  
CRESTVIEW      FAIR      91  68  46 VRB6      30.04F HX  95           
DUKE FIELD     PTSUNNY   89  65  45 E12G17    30.02F                  
VALPARAISO     PTSUNNY   91  65  42 E9G17     30.01F                  
MARY ESTHER    PTSUNNY   89  71  55 E9        30.00F HX  95           
TRI COUNTY     FAIR      91  65  41 NE10G17   30.03F                  
PANAMA CITY    FAIR      92  68  45 NE9G21    30.00F HX  96           
TYNDALL AFB    FAIR      91  71  52 NE10G16   29.99F HX  97           
APALACHICOLA   FAIR      90  73  57 SE8       29.99F HX  98           

STATION/POSITION SKY/WX   TEMP    WIND        PRES    WAVE   SWELL
                          AIR SEA DIR/SP/G            HT/PER HT/PER
                          (F)     (DEG/KT/KT) (MB)    (FT/S) (FT/S)
30.1N   87.6W              83 86   70/ 16/ 17 1016.3F   5/ 7   3/ 7
29.2N   88.2W              82      70/ 17/ 23 1015.4F   6/ 8   3/ 8
28.8N   86.0W                 85   70/ 19/ 21 1014.9F   5/ 7
PANAMA CITY BEAC           86 86   40/ 11/ 14 1016.7F
TOWER C                    80      60/ 20/ 21 1015.6F
28.5N   84.5W              83      60/ 14/ 16 1015.5F   5/ 6

$$
FLZ011-016>038-118-127-128-134-139-239-151900-
NORTH FLORIDA
  
CITY           SKY/WX    TMP DP  RH WIND       PRES   REMARKS
MARIANNA       FAIR      88  69  53 NE10      30.02F                  
TALLAHASSEE    PTSUNNY   92  72  51 NE14G20   29.99F HX  99           
PERRY          FAIR      91  75  60 E7        29.99F HX 101           
LIVE OAK       PTSUNNY   90  72  55 N10G16    29.98F HX  96           
CROSS CITY       N/A     86  76  70 NE13      29.97F HX  96           
LAKE CITY      PTSUNNY   82  75  78 NE9       30.00F                  
GAINESVILLE    HVY RAIN  80  76  87 N15G24    30.00F FOG              
WILLISTON      FAIR      89  74  62 NE10      29.95F HX  98           
PALATKA        FAIR      86  73  66 E15G22    29.96F                  
MAYPORT NAS    PTSUNNY   87  76  69 NE22G31   29.98S HX  97           
JACKSONVILLE   LGT RAIN  83  76  79 NE13G22   29.98F                  
JAX NAS        PTSUNNY   84  77  79 N15G25    29.99F                  
JAX CECIL      HVY RAIN  86  72  62 NE14G23   29.98F VSB 1            
FERNANDINA BEA CLOUDY    81  77  86 NE18G26   30.00S                  
ST AUGUSTINE   CLOUDY    84 N/A N/A N18       29.98F                  
PALM COAST     PTSUNNY   84  75  74 NE12G20   29.95F                  

STATION/POSITION SKY/WX   TEMP    WIND        PRES    WAVE   SWELL
                          AIR SEA DIR/SP/G            HT/PER HT/PER
                          (F)     (DEG/KT/KT) (MB)    (FT/S) (FT/S)
SHELL POINT      NOT AVBL
KEATON BEACH               86      60/ 11/ 15 1015.2F
CEDAR KEY                  88      40/  9/ 13 1014.2F
FERNANDINA                 88 84   30/ 12/ 19 1016.7F
30.7N   81.3W                 83                N/A     7/10   3/11
MAYPORT                    84 83   50/ 21/ 27 1015.9
31.4N   80.9W              82 83   40/ 21/ 27 1015.7F   7/ 6   3/10
ST AUGUSTINE               81 84   20/ 16/ 18 1014.6F

$$
FLZ040-043>046-052-053-057-058-063-144-151900-
INTERIOR CENTRAL FLORIDA
  
CITY           SKY/WX    TMP DP  RH WIND       PRES   REMARKS
OCALA          PTSUNNY   86  76  71 VRB3      29.95F HX  96           
LEESBURG       FAIR      87  75  67 NE12      29.95F HX  96           
SANFORD        PTSUNNY   85  74  69 N13       29.93F                  
ORLANDO EXEC   PTSUNNY   86  72  62 NE16G26   29.94S                  
ORLANDO INTL   PTSUNNY   88  73  61 N16       29.92F HX  95           
KISSIMMEE      FAIR      89  74  60 NE7       29.93F HX  98           
WINTER HAVEN   PTSUNNY   91  74  57 NE9       29.94F HX 100           
LAKELAND       MOSUNNY   88  73  62 NE8       29.94F HX  96           
BARTOW         PTSUNNY   90  73  58 N8        29.92  HX  98           
SEBRING        FAIR      82  74  76 W9        29.92F                  
OKEECHOBEE     CLOUDY    84  75  74 N8        29.92S                  

$$
FLZ041-047-054-059-064-141-147-151900-
EAST CENTRAL FLORIDA
  
CITY           SKY/WX    TMP DP  RH WIND       PRES   REMARKS
ORMOND BEACH   MOSUNNY   84  81  89 NE13G21   29.94F HX  98           
DAYTONA BEACH  PTSUNNY   84  76  76 NE17      29.94F                  
DELAND         CLOUDY    82  77  83 N9        29.94F                  
NEW SMYRNA BEA MOSUNNY   86  75  70 NE17G24   29.94F HX  95           
JFK SPACE CTR  SUNNY     86  80  81 NE15G24   29.90F HX 101           
TITUSVILLE     MOSUNNY   90  75  62 NE21      29.92F HX 100           
CAPE CANAVERAL   N/A    N/A N/A N/A MISG        N/A                   
PATRICK AFB    FAIR      87  78  75 N13G21    29.89F HX 100           
MELBOURNE      PTSUNNY   90  75  61 N17       29.89F HX 100           
VERO BEACH     FAIR      87  75  67 N14       29.89F HX  96           
FT PIERCE      FAIR      87  76  69 VRB6      29.89F HX  97           

STATION/POSITION SKY/WX   TEMP    WIND        PRES    WAVE   SWELL
                          AIR SEA DIR/SP/G            HT/PER HT/PER
                          (F)     (DEG/KT/KT) (MB)    (FT/S) (FT/S)
28.5N   80.2W              83 84  350/ 21/ 25 1012.0F   8/ 9   5/ 9
28.9N   78.5W              80     330/ 29/ 39  999.9F  12/ 9   5/17
TRIDENT PIER               84 84  360/ 17/ 21 1013.8F
28.4N   80.5W                 83                N/A     4/10   2/11
27.5N   80.2W                 84                N/A     5/ 9   2/11

$$
FLZ050-056-061-142-242-148-248-149-249-151-251-155-255-
160-260-151900-
WEST CENTRAL FLORIDA
  
CITY           SKY/WX    TMP DP  RH WIND       PRES   REMARKS
CRYSTAL RIVER  PTSUNNY   90  75  62 E7        29.94F HX 100           
INVERNESS      FAIR      90  79  70 NE9G16    29.94F HX 105           
BROOKSVILLE    PTSUNNY   92  75  57 NE15G21   29.94F HX 103           
CLEARWATER AIR FAIR      88  73  62 NE3       29.94F HX  96           
ST PETE CLEARW FAIR      90  75  61 VRB5      29.94F HX 100           
TAMPA INTL     PTSUNNY   90  74  59 N9        29.94F HX  99           
TAMPA EXEC     PTSUNNY   90  77  66 NE5       29.94F HX 102           
PLANT CITY     PTSUNNY   90  77  66 NW3       29.95F HX 102           
MACDILL AFB    PTSUNNY   86  76  72 W5        29.94S HX  96           
PETER O KNIGHT PTSUNNY   90  77  66 W3        29.93F HX 102           
ST PETERSBURG  FAIR      85  76  74 SE5       29.92F                  
SARASOTA       FAIR      89  77  67 W8        29.92F HX 101           
VENICE         FAIR      90  77  66 W8        29.95S HX 102           

STATION/POSITION SKY/WX   TEMP    WIND        PRES    WAVE   SWELL
                          AIR SEA DIR/SP/G            HT/PER HT/PER
                          (F)     (DEG/KT/KT) (MB)    (FT/S) (FT/S)
27.3N   84.2W                 84                N/A     3/ 6
CLEARWATER BEACH           84 85  310/  8/  9 1014.4F
MIDDLE TAMPA BAY           83      CALM  /  3 1014.5F
VENICE                     85 86  260/  7/  8 1013.8F

$$
FLZ066-069-070-075>078-162-262-165-265-151900-
SOUTHWEST FLORIDA AND KEYS
  
CITY           SKY/WX    TMP DP  RH WIND       PRES   REMARKS
PUNTA GORDA    FAIR      91  72  53 VRB6      29.94F HX  98           
FT MYERS       FAIR      89  75  63 W12       29.92F HX  99           
SOUTHWEST INTL FAIR      89  74  60 SW8       29.93F HX  98           
NAPLES         FAIR      89  76  65 SW9       29.93F HX 100           
MARCO ISLAND     N/A    N/A N/A N/A W8        29.95F                  
IMMOKALEE      FAIR      93  73  52 SW6G14    29.90F HX 102           
MARATHON       FAIR      91  78  65 W7        29.94F HX 106           
KEY WEST NAS   PTSUNNY   90  79  70 SW13      29.95F HX 106           
KEY WEST INTL  FAIR      88  77  69 SW12      29.96S HX 100           

STATION/POSITION SKY/WX   TEMP    WIND        PRES    WAVE   SWELL
                          AIR SEA DIR/SP/G            HT/PER HT/PER
                          (F)     (DEG/KT/KT) (MB)    (FT/S) (FT/S)
NAPLES                     87 86  230/  6/  8 1013.9F
26.0N   85.6W              83 86  130/ 10/ 12 1014.0
DRY TORTUGAS               85     270/  5/  6 1014.8F
SOMBRERO KEY               85     240/ 12/ 13 1014.5F
LONG KEY                   86                 1012.9

$$
FLZ067-068-071>074-168-172>174-151900-
SOUTHEAST FLORIDA 
  
CITY           SKY/WX    TMP DP  RH WIND       PRES   REMARKS
W PALM BEACH   FAIR      89  73  59 W17       29.90F HX  97           
BOCA RATON     MOSUNNY   91  73  55 W12G21    29.90F HX 100           
FT LAUDER-EXEC FAIR      91  74  57 W17       29.90F HX 100           
FT LAUDERDALE  PTSUNNY   91  73  55 W15       29.90F HX  99           
POMPANO BEACH  FAIR      93  71  48 W15G24    29.90F HX 100           
PEMBROKE PINES FAIR      92  74  55 W13       29.92F HX 101           
OPA LOCKA      FAIR      91  75  59 W10G23    29.92F HX 101           
MIAMI          PTSUNNY   92  73  53 W9        29.92F HX 100           
WEST KENDALL   FAIR      91  77  63 W14       29.92F HX 104           
HOMESTEAD      CLOUDY    91  77  64 W9G18     29.91F HX 103           

STATION/POSITION SKY/WX   TEMP    WIND        PRES    WAVE   SWELL
                          AIR SEA DIR/SP/G            HT/PER HT/PER
                          (F)     (DEG/KT/KT) (MB)    (FT/S) (FT/S)
VIRGINIA KEY               85 87  190/  7/ 10 1012.8F
LAKE WORTH                 88 85  260/ 12/ 18 1013.6F
FOWEY ROCKS                86 85  200/  7/  7 1013.3F
SETTLEMENT POINT           84     240/ 16/ 18 1012.3F

$$